Home   Weather   Guiyang   Past weeks

Flag for China Past Weather in Guiyang, Guizhou, China — Yesterday and Last 2 Weeks

Now
57 °F

Light rain. Mostly cloudy.


Feels Like: 57 °F
Forecast: 58 / 67 °F
Wind: 3 mph from Southwest

Location: Guiyang Airport

Current Time: Apr 24, 2017 at 10:10:27 am

Latest Report: Apr 24, 2017 at 9:00 am


Visibility: N/A

Pressure: 29.98 "Hg (26.40 "Hg at 1067m altitude)

Humidity: 94%

Dew Point: 55 °F

Location of GuiyangLocation

Past Weather in Guiyang — Graph

°F

Guiyang Temperature Yesterday

Maximum temperature yesterday: 66 °F (at 12:00 pm)
Minimum temperature yesterday: 54 °F (at 4:00 am)
Average temperature yesterday: 59 °F

High & Low Weather Summary for the Past Weeks

 TemperatureHumidityPressure
High88 °F (Apr 9, 3:00 pm)100% (Apr 10, 6:00 am)30.21 "Hg (Apr 10, 6:00 am)
Low48 °F (Apr 22, 1:00 am)42% (Apr 13, 5:00 pm)29.59 "Hg (Apr 9, 5:00 pm)
Average64 °F74%29.96 "Hg
* Reported Apr 9 8:00 am — Apr 24 8:00 am, Guiyang, Weather by CustomWeather, © 2017

Note: Actual official high and low records may vary slightly from our data, if they occured in-between our weather recording intervals... More about our weather records

Advertising

Guiyang Weather History for the Previous 24 Hours

Scroll right to see more
 ConditionsComfort  
Time TempWeatherWind HumidityBarometerVisibility
8:00 am
Mon, Apr 24
55 °FLight rain. Mostly cloudy.8 mph94%29.98 "HgN/A
7:00 am57 °FMore clouds than sun.6 mph82%29.98 "HgN/A
6:00 am57 °FMostly cloudy.3 mph82%29.95 "HgN/A
5:00 am57 °FMostly cloudy.6 mph77%29.95 "HgN/A
4:00 am57 °FOvercast.6 mph77%29.95 "HgN/A
3:00 am57 °FOvercast.1 mph77%29.95 "HgN/A
2:00 am59 °FOvercast.6 mph68%29.98 "HgN/A
1:00 am59 °FOvercast.3 mph68%29.98 "HgN/A
12:00 am59 °FOvercast.3 mph72%30.01 "HgN/A
11:00 pm
Sun, Apr 23
59 °FOvercast.8 mph68%30.01 "HgN/A
10:00 pm61 °FOvercast.6 mph68%30.01 "HgN/A
9:00 pm59 °FOvercast.1 mph72%29.98 "HgN/A
8:00 pm61 °FOvercast.6 mph68%29.98 "HgN/A
7:00 pm63 °FOvercast.6 mph68%29.98 "HgN/A
6:00 pm63 °FPartly sunny.6 mph68%29.95 "HgN/A
5:00 pm63 °FOvercast.6 mph68%29.98 "HgN/A
4:00 pm63 °FOvercast.6 mph68%29.98 "HgN/A
3:00 pm63 °FOvercast.3 mph68%30.01 "HgN/A
2:00 pm63 °FLight rain. Overcast.6 mph68%30.04 "HgN/A
1:00 pm63 °FScattered clouds.10 mph64%30.07 "HgN/A
12:00 pm66 °FScattered clouds.8 mph60%30.07 "HgN/A
11:00 am63 °FScattered clouds.8 mph68%30.07 "HgN/A
10:00 am59 °FPartly sunny.3 mph77%30.07 "HgN/A
Weather by CustomWeather, © 2017

See weather overviewHow to use our weather pages